TimeCDT,TemperatureF,Dew PointF,Humidity,Sea Level PressureIn,VisibilityMPH,Wind Direction,Wind SpeedMPH,Gust SpeedMPH,PrecipitationIn,Events,Conditions,WindDirDegrees,DateUTC
12:15 AM,54.0,45.1,72,30.02,10.0,SSE,5.8,-,N/A,,Overcast,150,2013-04-23 05:15:00
12:35 AM,52.3,48.0,85,30.05,7.0,SSW,10.4,16.1,N/A,,Drizzle,210,2013-04-23 05:35:00
12:55 AM,53.6,50.0,88,30.05,10.0,SSW,9.2,-,N/A,Rain,Light Rain,200,2013-04-23 05:55:00
1:15 AM,51.4,48.4,89,30.04,10.0,South,10.4,-,N/A,Rain,Light Rain,190,2013-04-23 06:15:00
1:35 AM,51.4,49.3,92,30.02,5.0,South,6.9,-,0.02,Rain,Light Rain,190,2013-04-23 06:35:00
1:55 AM,50.0,48.2,94,30.01,7.0,South,3.5,-,0.03,,Light Drizzle,170,2013-04-23 06:55:00
2:15 AM,49.1,47.3,93,29.99,7.0,SE,4.6,-,N/A,,Light Drizzle,140,2013-04-23 07:15:00
2:35 AM,48.0,46.2,93,29.97,10.0,ESE,4.6,-,N/A,,Overcast,120,2013-04-23 07:35:00
2:55 AM,47.7,46.0,94,29.99,7.0,SSE,4.6,-,N/A,,Overcast,150,2013-04-23 07:55:00
3:15 AM,48.2,46.6,94,29.98,10.0,SSE,4.6,-,N/A,,Overcast,160,2013-04-23 08:15:00
3:35 AM,48.7,47.1,94,29.99,7.0,South,4.6,-,N/A,,Overcast,180,2013-04-23 08:35:00
3:55 AM,48.6,46.9,94,29.97,7.0,SSE,5.8,-,N/A,,Overcast,160,2013-04-23 08:55:00
4:15 AM,49.1,47.3,93,29.96,7.0,SSE,5.8,-,N/A,,Overcast,160,2013-04-23 09:15:00
4:35 AM,48.4,46.8,94,29.96,7.0,South,5.8,-,N/A,,Overcast,170,2013-04-23 09:35:00
4:55 AM,48.7,47.1,94,29.96,7.0,SSW,6.9,-,N/A,,Overcast,200,2013-04-23 09:55:00
5:15 AM,50.2,48.6,94,29.94,10.0,South,5.8,-,N/A,,Overcast,190,2013-04-23 10:15:00
5:35 AM,50.7,49.1,94,29.96,10.0,SSW,6.9,-,N/A,,Overcast,210,2013-04-23 10:35:00
5:55 AM,51.4,49.6,94,29.96,10.0,SW,6.9,-,N/A,,Overcast,230,2013-04-23 10:55:00
6:15 AM,51.4,49.6,94,29.97,10.0,SW,8.1,-,N/A,,Overcast,230,2013-04-23 11:15:00
6:35 AM,51.4,49.6,94,29.96,7.0,WSW,8.1,-,N/A,,Overcast,240,2013-04-23 11:35:00
6:55 AM,50.7,48.7,93,29.95,7.0,WSW,5.8,-,N/A,,Overcast,250,2013-04-23 11:55:00
7:15 AM,51.3,48.9,92,29.95,7.0,West,10.4,-,N/A,,Overcast,260,2013-04-23 12:15:00
7:35 AM,51.8,48.2,88,29.96,7.0,West,15.0,20.7,N/A,,Overcast,280,2013-04-23 12:35:00
7:55 AM,47.3,44.1,88,29.96,10.0,West,12.7,18.4,N/A,,Overcast,280,2013-04-23 12:55:00
8:15 AM,46.4,42.8,87,29.98,10.0,West,11.5,-,N/A,,Mostly Cloudy,270,2013-04-23 13:15:00
8:35 AM,44.1,40.1,86,29.98,10.0,West,11.5,21.9,N/A,,Mostly Cloudy,280,2013-04-23 13:35:00
8:55 AM,44.1,40.3,87,29.98,10.0,WNW,11.5,-,N/A,,Overcast,290,2013-04-23 13:55:00
9:15 AM,43.7,40.1,87,29.97,10.0,WNW,11.5,19.6,N/A,,Overcast,290,2013-04-23 14:15:00
9:35 AM,43.7,39.6,85,29.98,10.0,WNW,9.2,-,N/A,,Overcast,290,2013-04-23 14:35:00
9:55 AM,41.2,38.3,89,29.99,10.0,WNW,9.2,-,N/A,,Drizzle,290,2013-04-23 14:55:00
10:15 AM,41.2,39.2,93,29.99,4.0,WNW,10.4,-,0.02,Rain,Light Rain,290,2013-04-23 15:15:00
10:35 AM,39.9,37.9,93,30.00,5.0,WNW,12.7,-,0.04,Rain,Rain,290,2013-04-23 15:35:00
10:55 AM,39.0,37.2,93,30.01,5.0,WNW,10.4,-,0.06,Rain,Light Rain,290,2013-04-23 15:55:00
11:15 AM,38.7,36.9,93,30.01,7.0,WNW,12.7,18.4,0.02,Rain,Rain,300,2013-04-23 16:15:00
11:35 AM,38.7,36.9,93,30.01,7.0,NW,10.4,17.3,0.05,Rain,Rain,310,2013-04-23 16:35:00
11:55 AM,38.7,36.9,93,30.01,5.0,NW,9.2,-,0.08,Rain,Rain,310,2013-04-23 16:55:00
12:15 PM,38.7,36.9,93,30.01,3.0,NW,11.5,-,0.04,Rain,Rain,310,2013-04-23 17:15:00
12:35 PM,38.7,36.9,93,30.00,3.0,NW,11.5,-,0.08,Rain,Rain,310,2013-04-23 17:35:00
12:55 PM,39.2,37.4,93,29.99,4.0,NW,11.5,-,N/A,Rain,Rain,320,2013-04-23 17:55:00
1:15 PM,39.4,37.8,94,29.99,5.0,WNW,11.5,-,0.02,Rain,Rain,300,2013-04-23 18:15:00
1:35 PM,38.7,37.0,94,29.99,7.0,NW,11.5,17.3,0.04,Rain,Rain,310,2013-04-23 18:35:00
1:55 PM,39.0,37.4,94,29.99,10.0,NW,8.1,-,0.06,Rain,Light Rain,310,2013-04-23 18:55:00
2:15 PM,38.8,37.0,93,29.99,10.0,WNW,9.2,-,0.01,Rain,Light Rain,300,2013-04-23 19:15:00
2:35 PM,38.7,37.0,94,29.99,10.0,NW,8.1,-,0.02,Rain,Light Rain,310,2013-04-23 19:35:00
2:55 PM,38.7,37.0,94,29.99,7.0,NW,11.5,-,0.03,Rain,Rain,310,2013-04-23 19:55:00
3:15 PM,38.7,36.9,93,30.00,7.0,WNW,8.1,-,0.01,Rain,Light Rain,300,2013-04-23 20:15:00
3:35 PM,38.7,37.0,94,29.99,5.0,NW,8.1,-,0.02,Rain,Light Rain,320,2013-04-23 20:35:00
3:55 PM,38.7,37.0,94,29.98,7.0,NW,6.9,-,0.03,Rain,Light Rain,320,2013-04-23 20:55:00
4:15 PM,38.7,37.0,94,29.97,10.0,NNW,8.1,-,0.01,Rain,Light Rain,330,2013-04-23 21:15:00
4:35 PM,38.7,37.0,94,29.97,10.0,NW,8.1,-,0.01,,Light Drizzle,320,2013-04-23 21:35:00
4:55 PM,38.7,37.0,94,29.97,10.0,NW,11.5,-,0.01,Rain,Light Rain,320,2013-04-23 21:55:00
5:15 PM,38.7,36.9,93,29.96,10.0,NNW,10.4,-,N/A,Rain,Light Rain,330,2013-04-23 22:15:00
5:35 PM,38.7,36.9,93,29.97,10.0,NNW,10.4,18.4,N/A,,Drizzle,330,2013-04-23 22:35:00
5:55 PM,38.7,36.9,93,29.98,10.0,NNW,5.8,-,0.01,,Light Drizzle,330,2013-04-23 22:55:00
6:15 PM,38.7,36.9,93,29.98,10.0,NW,8.1,-,N/A,Rain,Light Rain,320,2013-04-23 23:15:00
6:35 PM,38.7,37.0,94,29.98,10.0,NNW,4.6,-,N/A,,Light Drizzle,340,2013-04-23 23:35:00
6:55 PM,39.6,37.8,93,29.98,10.0,NNW,4.6,-,N/A,Rain,Light Rain,340,2013-04-23 23:55:00
7:15 PM,40.3,38.3,93,29.99,10.0,Calm,Calm,-,N/A,,Light Drizzle,0,2013-04-24 00:15:00
7:35 PM,41.2,37.0,85,29.98,10.0,North,5.8,-,N/A,,Overcast,350,2013-04-24 00:35:00
7:55 PM,41.2,36.7,84,29.99,10.0,NNW,9.2,-,N/A,,Overcast,340,2013-04-24 00:55:00
8:15 PM,41.2,36.1,82,30.00,10.0,NNW,8.1,-,N/A,,Overcast,330,2013-04-24 01:15:00
8:35 PM,41.2,35.6,81,30.00,10.0,North,10.4,-,N/A,,Overcast,350,2013-04-24 01:35:00
8:55 PM,41.2,35.4,80,29.99,10.0,NNW,6.9,-,N/A,,Overcast,340,2013-04-24 01:55:00
9:15 PM,41.2,35.8,81,30.00,10.0,NNW,8.1,-,N/A,,Overcast,340,2013-04-24 02:15:00
9:35 PM,41.2,35.4,80,30.00,10.0,NNW,6.9,-,N/A,,Overcast,330,2013-04-24 02:35:00
9:55 PM,41.0,35.6,81,30.00,10.0,NW,6.9,-,N/A,,Overcast,320,2013-04-24 02:55:00
10:15 PM,40.1,34.0,79,30.00,10.0,NNW,6.9,-,N/A,,Overcast,330,2013-04-24 03:15:00
10:35 PM,40.1,34.2,79,30.00,10.0,NW,8.1,-,N/A,,Overcast,320,2013-04-24 03:35:00
10:55 PM,39.9,33.8,79,30.00,10.0,NW,10.4,-,N/A,,Overcast,320,2013-04-24 03:55:00
11:15 PM,39.2,33.3,79,30.00,10.0,NNW,8.1,-,N/A,,Mostly Cloudy,330,2013-04-24 04:15:00
11:35 PM,39.0,32.9,79,30.00,10.0,NW,6.9,-,N/A,,Mostly Cloudy,320,2013-04-24 04:35:00
11:55 PM,39.2,32.0,75,30.01,10.0,NW,8.1,-,N/A,,Mostly Cloudy,320,2013-04-24 04:55:00